Location: Affalterwang
(48.8145°N, 10.2083°E)
Time: 19:21:41
(UTC+00:00)

Daily predictions for brighter satellites

Satellite Brightness Start Highest point End
(mag) Time Altitude Azimuth Time Altitude Azimuth Time Altitude Azimuth
USA 245 4.0 19:58:27 10° SSE 20:02:37 59° ENE 20:07:48 10° N
Cosmos 2228 Rocket 3.2 20:03:12 10° S 20:07:45 81° E 20:12:21 10° NNE
SL-27 R/B 3.2 20:05:15 10° SW 20:07:55 44° WNW 20:10:38 10° N
BREEZE-M DEB (TANK) 3.4 20:04:23 10° WSW 20:07:59 71° SSE 20:20:36 10° ENE
Cosmos 1862 Rocket 3.7 20:04:19 10° S 20:08:40 62° E 20:13:05 10° NNE
Okean 1-7 3.8 20:07:30 10° SSE 20:11:22 33° E 20:15:16 10° NNE
SL-16 R/B 4.1 20:07:06 10° NW 20:11:42 26° WSW 20:16:18 10° SSW
GENESIS II 4.1 20:08:14 10° SSW 20:11:47 56° SE 20:15:22 10° NE
Cosmos 1315 Rocket 3.5 20:10:25 10° SSE 20:14:05 37° E 20:17:47 10° NNE
COSMOS 2455 3.8 20:10:34 10° SSE 20:15:26 26° ESE 20:20:20 10° NE
Cosmos 1346 Rocket 3.1 20:11:37 10° NNW 20:15:27 63° W 20:19:14 10° S
Cosmos 1242 Rocket 3.7 20:13:52 10° SE 20:15:43 17° E 20:17:33 10° NE
Meteor 1-21 4.3 20:11:25 10° S 20:17:12 78° E 20:23:03 10° NNE
SeaSat 1 2.8 20:13:34 10° SE 20:18:22 58° NE 20:23:13 10° NNW
Ariane Rocket 3.1 20:20:58 10° SSE 20:26:02 72° ENE 20:31:08 10° N
NOSS 5 (C) 4.3 20:23:04 10° NW 20:26:14 72° NE 20:29:17 11° SE
IRS-1C Rocket 4.4 20:21:34 10° S 20:26:47 67° WSW 20:32:02 10° NNW
Cosmos 839 Rocket 4.3 20:20:07 10° NW 20:26:56 69° WSW 20:33:02 10° SSE
Cosmos 1707 Rocket 3.9 20:23:41 10° SSW 20:28:06 72° W 20:32:32 10° N
Okean 3 3.4 20:24:22 10° S 20:28:31 81° E 20:32:43 10° NNE
SL-16 R/B 4.5 20:25:42 10° N 20:29:00 15° NNE 20:32:18 10° ENE
Cosmos 2333 Rocket 3.3 20:23:58 10° NW 20:29:19 41° WSW 20:34:40 10° S
SL-14 R/B 4.2 20:26:16 10° SSW 20:29:56 49° WNW 20:33:40 10° N
Cosmos 1408 4.4 20:30:43 10° E 20:31:26 11° E 20:32:09 10° ENE
SL-4 R/B 1.9 20:28:04 10° WNW 20:31:53 71° SSW 20:35:52 10° ESE
Cosmos 2237 Rocket 3.4 20:27:13 10° NNW 20:32:19 33° NE 20:37:23 10° ESE
CZ-4C R/B 4.3 20:30:45 10° N 20:34:48 53° WNW 20:38:45 10° SSW
Cosmos 1655 Rocket 4.4 20:28:42 10° SSW 20:35:05 69° WNW 20:41:28 10° N
BlueWalker 3 1.8 20:32:42 10° WSW 20:36:28 89° SSE 20:40:14 10° ENE
Cosmos 968 Rocket 4.2 20:31:58 10° SW 20:37:03 57° WNW 20:42:13 10° NNE
Okean 2 3.4 20:34:50 10° S 20:38:46 61° E 20:42:46 10° NNE
Cosmos 2227 Rocket 4.1 20:37:52 10° ESE 20:39:29 11° E 20:41:07 10° ENE
Cosmos 1733 Rocket 4.1 20:38:06 10° NNW 20:42:19 44° W 20:46:30 10° SSW
Cosmos 2322 3.8 20:39:47 10° NNW 20:45:30 84° WSW 20:50:38 13° SSE
USA 234 3.6 20:42:44 10° ENE 20:48:54 43° SE 20:55:02 10° SSW
Cosmos 2322 Rocket 4.2 20:45:25 10° NW 20:49:33 21° W 20:53:42 10° SSW
Cosmos 2297 Rocket 3.1 20:53:48 13° SSE 20:57:58 30° ESE 21:02:49 10° NE
EXPRESS MD2 2.0 20:55:54 10° WNW 20:58:30 76° N 21:00:19 13° E
Cosmos 1908 Rocket 3.6 20:58:59 10° NNW 21:03:19 79° W 21:07:02 14° S
MOS 1 Rocket 4.1 20:59:00 10° S 21:04:14 55° W 21:09:17 10° NNW
Cosmos 2219 Rocket 3.3 21:01:12 10° NW 21:06:21 36° WSW 21:11:29 10° S
NOSS 8 (F) 4.3 21:02:36 10° SW 21:06:36 84° SE 21:09:44 10° NE
Cosmos 1782 Rocket 3.7 21:02:49 10° N 21:07:07 61° ENE 21:10:15 18° SSE
ERS-1 Rocket 4.2 21:04:36 10° SSW 21:09:12 36° W 21:13:50 10° NNW
USA 281 4.0 21:03:53 10° ESE 21:09:59 43° NE 21:16:07 10° NNW
Cosmos 371 Rocket 3.7 21:06:32 14° S 21:10:24 44° ESE 21:15:00 10° NE
Terra 3.0 21:08:10 10° SSW 21:12:30 36° W 21:16:53 10° NNW
Cosmos 1570 Rocket 4.4 21:07:21 10° NNW 21:12:38 59° WSW 21:17:02 15° S
Cosmos 773 Rocket 4.2 21:08:04 10° NNW 21:13:11 60° ENE 21:17:04 17° SE
Cosmos 1300 Rocket 3.7 21:09:55 10° N 21:14:12 60° ENE 21:17:09 19° SSE
MetOp-A 4.1 21:10:24 16° SSE 21:14:42 89° ENE 21:19:53 10° NNW
Cosmos 1703 4.1 21:21:01 21° SE 21:22:39 30° E 21:25:54 10° NNE
ARIANE 5 R/B 3.3 21:19:54 18° SE 21:22:45 42° ENE 21:26:53 10° N
Spot 1 4.4 21:18:18 10° NNE 21:23:02 87° WNW 21:27:58 10° SSW
GP-B 3.1 21:19:58 10° N 21:24:22 69° E 21:27:24 20° S
Cosmos 2084 Rocket 3.5 21:26:12 10° SSW 21:30:24 53° SE 21:34:28 10° NE
NOSS 0 Rocket 4.1 21:24:36 10° NNW 21:30:51 71° WSW 21:35:24 19° SSE
Cosmos 1953 3.8 21:29:26 10° NNW 21:32:46 29° W 21:36:00 10° SSW
COSMOS 2428 3.4 21:27:32 10° NW 21:32:59 47° WSW 21:37:11 16° S
Cosmos 1455 3.7 21:31:25 10° NNW 21:34:27 27° W 21:37:14 11° SSW
CZ-4C R/B 1.8 21:30:28 10° SW 21:34:58 80° SE 21:40:41 10° NE
SJ 16-02 4.0 21:32:02 10° WSW 21:35:19 21° NW 21:38:37 10° N
BREEZE-M DEB (TANK) 4.0 21:19:41 10° W 21:36:40 85° N 21:40:50 10° E
Cosmos 1745 Rocket 4.1 21:34:05 13° S 21:39:48 90° WNW 21:46:13 10° N
BREEZE-M DEB (TANK) 3.2 21:39:50 33° SSE 21:40:11 35° SSE 21:43:26 10° E
Cosmos 1777 Rocket 4.3 21:36:58 20° S 21:40:28 50° ESE 21:45:34 10° NNE
Cosmos 304 Rocket 3.7 21:38:33 16° SSW 21:42:17 71° ESE 21:47:03 10° NNE
Nadezhda 1 Rocket 4.2 21:37:27 10° NNW 21:43:40 69° W 21:48:28 17° S
Cosmos 1242 Rocket 4.4 21:45:27 10° WSW 21:47:31 19° WNW 21:49:36 10° NNW
Cosmos 1503 Rocket 4.0 21:45:02 17° S 21:49:10 70° ESE 21:54:26 10° NNE
Cosmos 1825 3.7 21:49:46 17° ESE 21:50:29 18° E 21:52:56 10° NE
Cosmos 2151 Rocket 4.4 21:48:03 10° N 21:52:13 39° ENE 21:54:29 22° SE
Cosmos 2098 Rocket 4.1 21:49:04 10° N 21:55:38 69° ENE 21:59:29 23° SSE
SeaSat 1 4.0 21:52:49 13° SSW 21:56:06 25° WSW 22:00:07 10° NW
Okean 2 Rocket 3.9 21:52:55 10° N 21:57:12 41° ENE 21:59:32 23° SE
BREEZE-M R/B 4.3 21:57:09 22° SE 21:58:12 24° SE 22:04:33 10° ENE
H-2A R/B 2.9 21:56:48 25° SE 21:59:03 52° ENE 22:03:07 10° N
MINOTAUR 4 R/B 3.8 21:57:22 10° NNE 22:00:11 48° E 22:00:41 42° SE
COSMOS 2455 3.2 21:54:54 10° SW 22:00:53 67° NW 22:06:57 10° NNE
Cosmos 1892 3.7 22:01:05 25° ESE 22:01:57 28° E 22:05:01 10° NNE
CZ-2C R/B 3.6 21:57:57 10° NNE 22:02:24 85° ESE 22:05:08 23° SSW
Cosmos 1408 3.2 22:02:06 20° SW 22:03:43 39° WNW 22:06:34 10° N
Cosmos 332 Rocket 4.0 22:03:50 26° S 22:06:22 54° ESE 22:11:08 10° NNE
Cosmos 1174 4.2 22:02:18 10° NW 22:07:01 56° WSW 22:08:42 31° S
ALOS 2 3.4 22:04:51 22° SE 22:07:14 42° ENE 22:11:23 10° N
Cosmos 405 Rocket 2.6 22:04:35 10° N 22:08:24 84° ENE 22:09:55 34° SSE
SL-4 R/B 3.6 22:07:24 10° W 22:10:12 19° SW 22:10:36 18° SW
Cosmos 2181 Rocket 4.1 22:04:23 10° N 22:10:34 69° ENE 22:14:19 24° SSE
SL-16 R/B 2.7 22:08:49 10° NNW 22:14:27 56° ENE 22:18:25 19° SE
BlueWalker 3 3.2 22:11:18 10° W 22:14:53 42° N 22:18:29 10° ENE
Meteor 2-5 Rocket 3.8 22:11:12 21° S 22:15:15 89° E 22:21:04 10° NNE
CENTAUR R/B 2.6 22:11:56 22° S 22:15:36 54° ESE 22:22:21 10° NE
Cosmos 2237 Rocket 2.6 22:11:09 10° NW 22:16:38 52° WSW 22:19:45 25° S
Spot 4 3.8 22:17:54 28° SSE 22:20:26 78° ENE 22:25:17 10° NNW
Cosmos 2227 Rocket 2.2 22:18:48 23° SSW 22:22:27 69° ESE 22:28:06 10° NNE
Cosmos 2221 Rocket 3.8 22:25:50 32° SSE 22:27:41 59° E 22:32:03 10° NNE
USA 234 3.4 22:25:40 10° NE 22:32:13 76° NNW 22:38:44 10° WSW
H-2A R/B 3.6 22:29:13 10° NE 22:32:18 20° E 22:33:24 18° ESE
Sich 1 Rocket 3.5 22:28:40 10° N 22:33:04 90° NW 22:34:57 34° S
Cosmos 1354 Rocket 4.3 22:31:07 17° SW 22:35:17 68° WNW 22:40:35 10° NNE
Okean 1 Rocket 3.1 22:34:43 10° N 22:39:06 69° ENE 22:40:58 33° SSE
Cosmos 2297 Rocket 2.9 22:36:16 10° SW 22:41:45 51° NW 22:47:17 10° NNE
Cosmos 1461 3.6 22:43:12 31° SE 22:43:30 31° ESE 22:46:57 10° NE
Nadezhda 3 Rocket 4.2 22:42:04 10° N 22:48:18 64° ENE 22:51:56 25° SSE
Cosmos 990 Rocket 3.9 22:45:53 29° S 22:48:29 75° ESE 22:53:38 10° NNE
USA 281 3.7 22:50:46 25° S 22:54:25 49° WSW 23:00:47 10° NW
Cosmos 2219 3.2 22:51:47 28° S 22:54:45 69° ESE 23:00:21 10° NNE
Cosmos 1680 Rocket 4.5 22:52:35 10° NNW 22:57:32 42° ENE 23:01:20 16° SE
ARIANE 5 R/B 4.3 22:57:21 17° SW 22:59:19 23° W 23:02:49 10° NW
Cosmos 1975 Rocket 4.2 22:59:41 25° SE 23:01:17 32° E 23:05:13 10° NNE
Cosmos 1025 Rocket 3.2 23:00:15 36° SSE 23:01:47 61° E 23:06:02 10° NNE
Cosmos 2184 Rocket 4.0 22:59:56 27° S 23:03:42 89° WNW 23:10:08 10° N
Cosmos 2263 Rocket 2.3 23:01:08 30° S 23:03:43 58° ESE 23:09:11 10° NE
Orbus 7S? 4.0 23:01:20 10° NW 23:03:54 36° NNE 23:06:46 10° E
Cosmos 1455 Rocket 3.3 23:04:57 10° N 23:09:22 61° ENE 23:11:17 32° SSE
Cosmos 372 Rocket 4.4 23:10:27 31° SSE 23:12:35 49° ESE 23:17:37 10° NNE
Cosmos 1674 Rocket 4.4 23:14:10 23° SW 23:16:22 41° WNW 23:20:29 10° N
Cosmos 292 Rocket 3.7 23:17:32 33° SSW 23:19:44 86° ESE 23:24:35 10° NNE
Cosmos 1844 Rocket 4.4 23:18:48 14° SE 23:21:04 18° E 23:24:45 10° ENE
Cosmos 2154 Rocket 4.0 23:18:32 27° SSW 23:22:10 81° W 23:28:31 10° N
NOSS 3-2 (A) 3.2 23:18:38 22° SW 23:22:11 90° NW 23:28:30 10° NE
CZ-4C R/B 4.1 23:19:39 10° W 23:24:05 30° NNW 23:29:32 10° NE
Cosmos 1825 3.4 23:23:13 23° WSW 23:24:28 29° WNW 23:27:31 10° N
PSLV R/B 3.6 23:24:56 10° N 23:29:07 71° WNW 23:30:49 34° SSW
NOSS 3-2 (C) 3.4 23:30:22 31° S 23:32:43 55° ESE 23:38:44 10° NE
Cosmos 1818 3.7 23:28:30 10° NW 23:33:54 59° WSW 23:36:27 30° S
H-2A R/B 4.4 23:32:47 15° WSW 23:34:14 18° W 23:37:09 10° NW
Cosmos 2228 4.3 23:33:04 10° N 23:37:01 34° ENE 23:39:32 18° SE
Meteor 1-21 Rocket 4.2 23:34:06 29° SSW 23:37:10 82° WNW 23:42:50 10° N
ALOS 2 4.1 23:42:15 20° WSW 23:43:43 23° W 23:47:17 10° NW
In-Cosmos 22 Rocket 4.3 23:41:13 29° S 23:44:18 81° E 23:50:10 10° NNE
Cosmos 1869 3.3 23:44:11 10° N 23:47:52 64° ENE 23:49:12 36° SSE
Aureole 1 Rocket 3.7 23:48:39 25° SW 23:50:50 50° WNW 23:55:48 10° NNE
Cosmos 1937 Rocket 3.4 23:48:31 30° SSW 23:51:10 87° ESE 23:56:26 10° NNE
BlueWalker 3 2.7 23:49:49 10° WNW 23:53:30 52° NNE 23:57:10 10° E
